Preview of NWS' New Version of Forecast
This preview is not operational and should not be used for support decisions.

Regional Weather Roundup (RWR)

Issued by National Weather Service (NWS)

                            
000
ASUS43 KMKX 191421
RWRWI 

WISCONSIN REGIONAL WEATHER ROUNDUP
NATIONAL WEATHER SERVICE MILWAUKEE/SULLIVAN WI
900 AM CDT MON AUG 19 2019

NOTE: "FAIR" INDICATES FEW OR NO CLOUDS BELOW 12,000 FEET WITH NO
SIGNIFICANT WEATHER AND/OR OBSTRUCTIONS TO VISIBILITY.

WIZ001-002-006>008-014>016-023>028-191500-
NORTHWEST WISCONSIN
  
CITY           SKY/WX    TMP DP  RH WIND       PRES   REMARKS
SUPERIOR ARPT  FAIR      63  52  68 SW7       29.96S                  
ASHLAND        FAIR      63  52  67 SW10      29.98S                  
HAYWARD        FAIR      61  51  70 SW3       30.01S                  
SIREN          FAIR      64  51  62 SW5       30.00S                  
CUMBERLAND     FAIR      61  52  72 SW5       30.02S                  
RICE LAKE      FAIR      60  45  58 CALM      30.03S                  
CHETEK         FAIR      60  55  84 CALM      30.02S                  
LADYSMITH      FAIR      62  57  85 S3        30.04S                  
EAU CLAIRE     FAIR      61  55  81 CALM      30.01S                  
MENOMONIE      FAIR      59  54  83 CALM      30.02F                  
NEW RICHMOND   FAIR      62  54  74 SW3       30.02S                  
OSCEOLA        FAIR      61  59  92 CALM      30.04S                  
$$
 
WIZ003>005-009-010-017-018-191500-
NORTH CENTRAL WISCONSIN
  
CITY           SKY/WX    TMP DP  RH WIND       PRES   REMARKS
MANITOWISH WTR FAIR      60  52  74 S3        30.01F                  
ARBOR VITAE    FAIR      61  54  76 W3        30.02S                  
WOODRUFF       FAIR      61  54  76 W3        30.02S                  
RHINELANDER    FAIR      62  50  64 W6        30.03S                  
EAGLE RIVER    FAIR      59  50  72 W5        30.02S                  
LAND O LAKES   FAIR      64  50  61 W3        30.03S                  
PHILLIPS       FAIR      62  52  71 CALM      30.02S                  
TOMAHAWK       FAIR      58  52  80 CALM      30.04S                  
MEDFORD        FAIR      62  53  74 CALM      30.03S                  
MERRILL        FAIR      56  56  97 CALM      30.04S                  
$$
 
WIZ029-030-035-036-043>047-191500-
CENTRAL WISCONSIN
  
CITY           SKY/WX    TMP DP  RH WIND       PRES   REMARKS
WAUSAU         FAIR      61  53  75 CALM      30.02S                  
MOSINEE        SUNNY     61  59  94 CALM      30.05R                  
MARSHFIELD     FAIR      65  56  72 CALM      30.02F                  
STEVENS POINT  FAIR      63  53  69 CALM      30.04S                  
WAUPACA        FAIR      70  54  56 CALM      30.04S                  
WAUTOMA        FAIR      65  56  72 CALM      30.04R                  
WISC RAPIDS    FAIR      64  56  75 CALM      30.04S                  
CAMP DOUGLAS   MOSUNNY   63  63 100 CALM      30.03F                  
$$
 
WIZ011>013-019>022-031-037>040-048>050-191500-
NORTHEAST WISCONSIN
  
CITY           SKY/WX    TMP DP  RH WIND       PRES   REMARKS
ANTIGO         FAIR      62  56  81 CALM      30.05S                  
SHAWANO        FAIR      67  56  68 CALM      30.03R                  
OCONTO         FAIR      66  53  61 CALM      30.02R                  
STURGEON BAY   FAIR      66  60  81 NW5       30.03R                  
GREEN BAY      FAIR      67  58  72 CALM      30.02R                  
MANITOWOC      FAIR      68  57  68 CALM      30.03R                  
APPLETON       SUNNY     64  48  55 CALM      30.02R                  
CLINTONVILLE   FAIR      67  54  62 CALM      30.03S                  
OSHKOSH        PTSUNNY   68  53  58 CALM      30.03R                  
$$
 
WIZ032>034-041-042-053>061-191500-
SOUTHWEST WISCONSIN
  
CITY           SKY/WX    TMP DP  RH WIND       PRES   REMARKS
LA CROSSE      FAIR      65  59  81 CALM      30.02F                  
SPARTA         CLOUDY    55  55 100 CALM      30.04F                  
VIROQUA        FAIR      67  59  74 E5        30.04F                  
BOSCOBEL       FAIR      67  62  84 VRB3      30.03S                  
PRAIRIE DU CHI FAIR      65  62  87 CALM      30.03R                  
PLATTEVILLE    FAIR      70  63  79 E8        30.04R                  
$$

WIZ056-057-062-063-064-067-068-191500-
SOUTH CENTRAL WISCONSIN
  
CITY           SKY/WX    TMP DP  RH WIND       PRES   REMARKS
REEDSBURG      FAIR      66  60  79 E3        30.04S                  
BARABOO/DELLS  FAIR      67  56  67 SE3       30.04S                  
LONE ROCK      FAIR      64  62  93 CALM      30.03S                  
MINERAL POINT  FAIR      70  64  83 NE8       30.04S                  
MADISON        FAIR      69  56  62 NE7       30.03R                  
MIDDLETON      FAIR      69 -15   3 CALM      30.04F                  
WATERTOWN      FAIR      69  61  75 NE5       30.03S                  
MONROE         PTSUNNY   67  60  77 NE7       30.04R                  
JANESVILLE     PTSUNNY   70  61  73 NE5       30.03R                  
$$
 
WIZ051-052-058>065-066-070>072-191500-
SOUTHEAST WISCONSIN
  
CITY           SKY/WX    TMP DP  RH WIND       PRES   REMARKS
MILWAUKEE      FAIR      73  59  61 NE6       30.02S                  
WAUKESHA       SUNNY     70  57  64 E3        30.04S                  
MILWAUKEE/TIMM SUNNY     70  54  56 N5        30.03S                  
RACINE         PTSUNNY   72  63  73 NE5       30.04S                  
KENOSHA        CLOUDY    70  66  87 CALM      30.03R                  
FOND DU LAC    FAIR      70  57  63 CALM      30.04R                  
SHEBOYGAN      FAIR      69  58  67 NW5       30.03R                  
WEST BEND      FAIR      68  55  64 CALM      30.03S                  
JUNEAU         FAIR      66  56  70 CALM      30.05S                  
$$

LSZ147-162-191500-
LAKE SUPERIOR
  
STATION/POSITION TIME  TEMP    WIND        PRES    WAVE
                       AIR SEA DIR/SP/G            HT/PER
                 (UTC) (F)     (DEG/KT/KT) (MB)    (FT/S)
W MID LAKE BUOY  1350   64 62  230/ 14/ 16 1012.9R   3/ 5
DEVILS ISLAND    1400   64     240/ 17/ 20 1013.7F
SAXON HARBOR     1330   63     190/  6/ 10 1014.6S
$$
 
LMZ867-665-643>646-191500-
LAKE MICHIGAN
  
STATION/POSITION TIME  TEMP    WIND        PRES    WAVE
                       AIR SEA DIR/SP/G            HT/PER
                 (UTC) (F)     (DEG/KT/KT) (MB)    (FT/S)
S GREEN BAY BUOY 1400   70 69  310/  2/  2 1016.6
N MID LAKE BUOY  1400   66 69  270/  8/ 10 1016.3
NORTHPORT PIER   1340   67     290/  1/  3 1015.9R
KEWAUNEE LAKESHO 1348   71      CALM  /  2 1015.7R
SHEBOYGAN LAKESH 1400   65     350/  7/  7 1016.7R
PORT WASHINGTON  1340   71     350/  2/  8 1017.6R
S MID LAKE BUOY  1400   72 73   60/  4/  6 1017.0
KENOSHA   LAKESH 1400   69      10/  3/  4 1016.6
$$

TC  - TEMPERATURE IN CELSIUS
VSB - VISIBILITY IN STATUTE MILES
WCI - WIND CHILL INDEX
HX  - HEAT INDEX